owner,sensor,date,latitude,longitude,vertical_datum,wind_speed,wind_to_direction,wind_speed_of_gust,qcFlag 
NDBC,ioos:station:NOAA.NDBC:FWYF1:1,2013-12-04T16:00:00Z,25.5910,-80.0970,43.9,4.6,140.0,5.1,'1111122,1111122,1111122' 
NDBC,ioos:station:NOAA.NDBC:FWYF1:1,2013-12-04T17:00:00Z,25.5910,-80.0970,43.9,5.1,150.0,5.7,'1111122,1111122,1111122' 
NDBC,ioos:station:NOAA.NDBC:FWYF1:1,2013-12-04T18:00:00Z,25.5910,-80.0970,43.9,5.1,140.0,5.7,'1111122,1111122,1111122' 
NDBC,ioos:station:NOAA.NDBC:FWYF1:1,2013-12-04T19:00:00Z,25.5910,-80.0970,43.9,3.1,150.0,3.6,'1111122,1111122,1111122' 
NDBC,ioos:station:NOAA.NDBC:FWYF1:1,2013-12-04T20:00:00Z,25.5910,-80.0970,43.9,2.6,130.0,3.1,'1111122,1111122,1111122' 
NDBC,ioos:station:NOAA.NDBC:FWYF1:1,2013-12-04T21:00:00Z,25.5910,-80.0970,43.9,4.1,120.0,4.6,'1111122,1111122,1111122' 
NDBC,ioos:station:NOAA.NDBC:FWYF1:1,2013-12-04T22:00:00Z,25.5910,-80.0970,43.9,4.1,110.0,4.6,'1111122,1111122,1111122' 
NDBC,ioos:station:NOAA.NDBC:FWYF1:1,2013-12-04T23:00:00Z,25.5910,-80.0970,43.9,4.1,100.0,4.6,'1111122,1111122,1111122' 
NDBC,ioos:station:NOAA.NDBC:FWYF1:1,2013-12-05T00:00:00Z,25.5910,-80.0970,43.9,4.1,100.0,4.6,'1111122,1111122,1111122' 
NDBC,ioos:station:NOAA.NDBC:FWYF1:1,2013-12-05T01:00:00Z,25.5910,-80.0970,43.9,4.1,100.0,4.6,'1111122,1111122,1111122' 
NDBC,ioos:station:NOAA.NDBC:FWYF1:1,2013-12-05T02:00:00Z,25.5910,-80.0970,43.9,5.1,100.0,5.1,'1111122,1111122,1111122' 
NDBC,ioos:station:NOAA.NDBC:FWYF1:1,2013-12-05T03:00:00Z,25.5910,-80.0970,43.9,6.2,100.0,6.7,'1111122,1111122,1111122' 
NDBC,ioos:station:NOAA.NDBC:FWYF1:1,2013-12-05T04:00:00Z,25.5910,-80.0970,43.9,6.7,110.0,7.2,'1111122,1111122,1111122' 
NDBC,ioos:station:NOAA.NDBC:FWYF1:1,2013-12-05T05:00:00Z,25.5910,-80.0970,43.9,7.2,120.0,7.7,'1111122,1111122,1111122' 
NDBC,ioos:station:NOAA.NDBC:FWYF1:1,2013-12-05T06:00:00Z,25.5910,-80.0970,43.9,7.7,110.0,8.2,'1111122,1111122,1111122' 
NDBC,ioos:station:NOAA.NDBC:FWYF1:1,2013-12-05T07:00:00Z,25.5910,-80.0970,43.9,8.2,100.0,8.8,'1111122,1111122,1111122' 
NDBC,ioos:station:NOAA.NDBC:FWYF1:1,2013-12-05T08:00:00Z,25.5910,-80.0970,43.9,7.7,100.0,8.8,'1111122,1111122,1111122' 
NDBC,ioos:station:NOAA.NDBC:FWYF1:1,2013-12-05T09:00:00Z,25.5910,-80.0970,43.9,7.7,100.0,8.2,'1111122,1111122,1111122' 
NDBC,ioos:station:NOAA.NDBC:FWYF1:1,2013-12-05T10:00:00Z,25.5910,-80.0970,43.9,8.2,100.0,8.8,'1111122,1111122,1111122' 
NDBC,ioos:station:NOAA.NDBC:FWYF1:1,2013-12-05T11:00:00Z,25.5910,-80.0970,43.9,8.8,100.0,9.3,'1111122,1111122,1111122' 
NDBC,ioos:station:NOAA.NDBC:FWYF1:1,2013-12-05T12:00:00Z,25.5910,-80.0970,43.9,7.7,100.0,8.8,'1111122,1111122,1111122' 
NDBC,ioos:station:NOAA.NDBC:FWYF1:1,2013-12-05T13:00:00Z,25.5910,-80.0970,43.9,8.2,100.0,8.2,'1111122,1111122,1111122' 
NDBC,ioos:station:NOAA.NDBC:FWYF1:1,2013-12-05T14:00:00Z,25.5910,-80.0970,43.9,8.2,110.0,8.8,'1111122,1111122,1111122' 
NDBC,ioos:station:NOAA.NDBC:FWYF1:1,2013-12-05T15:00:00Z,25.5910,-80.0970,43.9,8.2,110.0,9.8,'1111122,1111122,1111122' 
NDBC,ioos:station:NOAA.NDBC:FWYF1:1,2013-12-05T16:00:00Z,25.5910,-80.0970,43.9,7.7,110.0,8.8,'1111122,1111122,1111122' 
NDBC,ioos:station:NOAA.NDBC:FWYF1:1,2013-12-05T17:00:00Z,25.5910,-80.0970,43.9,9.3,110.0,9.8,'1111122,1111122,1111122' 
NDBC,ioos:station:NOAA.NDBC:FWYF1:1,2013-12-05T18:00:00Z,25.5910,-80.0970,43.9,8.8,110.0,9.3,'1111122,1111122,1111122' 
NDBC,ioos:station:NOAA.NDBC:FWYF1:1,2013-12-05T19:00:00Z,25.5910,-80.0970,43.9,9.3,110.0,9.8,'1111122,1111122,1111122' 
NDBC,ioos:station:NOAA.NDBC:FWYF1:1,2013-12-05T20:00:00Z,25.5910,-80.0970,43.9,8.2,120.0,9.3,'1111122,1111122,1111122' 
NDBC,ioos:station:NOAA.NDBC:FWYF1:1,2013-12-05T21:00:00Z,25.5910,-80.0970,43.9,7.2,110.0,7.7,'1111122,1111122,1111122' 
NDBC,ioos:station:NOAA.NDBC:FWYF1:1,2013-12-05T22:00:00Z,25.5910,-80.0970,43.9,7.2,110.0,7.7,'1111122,1111122,1111122' 
NDBC,ioos:station:NOAA.NDBC:FWYF1:1,2013-12-05T23:00:00Z,25.5910,-80.0970,43.9,7.7,100.0,8.2,'1111122,1111122,1111122' 
NDBC,ioos:station:NOAA.NDBC:FWYF1:1,2013-12-06T00:00:00Z,25.5910,-80.0970,43.9,8.8,100.0,8.8,'1111122,1111122,1111122' 
NDBC,ioos:station:NOAA.NDBC:FWYF1:1,2013-12-06T01:00:00Z,25.5910,-80.0970,43.9,8.8,90.0,9.3,'1111122,1111122,1111122' 
NDBC,ioos:station:NOAA.NDBC:FWYF1:1,2013-12-06T02:00:00Z,25.5910,-80.0970,43.9,9.3,90.0,10.3,'1111122,1111122,1111122' 
NDBC,ioos:station:NOAA.NDBC:FWYF1:1,2013-12-06T03:00:00Z,25.5910,-80.0970,43.9,9.8,100.0,10.8,'1111122,1111122,1111122' 
NDBC,ioos:station:NOAA.NDBC:FWYF1:1,2013-12-06T04:00:00Z,25.5910,-80.0970,43.9,11.8,110.0,12.4,'1111122,1111122,1111122' 
NDBC,ioos:station:NOAA.NDBC:FWYF1:1,2013-12-06T05:00:00Z,25.5910,-80.0970,43.9,11.3,110.0,12.4,'1111122,1111122,1111122' 
NDBC,ioos:station:NOAA.NDBC:FWYF1:1,2013-12-06T06:00:00Z,25.5910,-80.0970,43.9,10.8,120.0,11.8,'1111122,1111122,1111122' 
NDBC,ioos:station:NOAA.NDBC:FWYF1:1,2013-12-06T07:00:00Z,25.5910,-80.0970,43.9,11.3,120.0,12.4,'1111122,1111122,1111122' 
NDBC,ioos:station:NOAA.NDBC:FWYF1:1,2013-12-06T08:00:00Z,25.5910,-80.0970,43.9,12.4,120.0,12.9,'1111122,1111122,1111122' 
NDBC,ioos:station:NOAA.NDBC:FWYF1:1,2013-12-06T09:00:00Z,25.5910,-80.0970,43.9,11.8,120.0,12.9,'1111122,1111122,1111122' 
NDBC,ioos:station:NOAA.NDBC:FWYF1:1,2013-12-06T10:00:00Z,25.5910,-80.0970,43.9,11.3,120.0,11.8,'1111122,1111122,1111122' 
NDBC,ioos:station:NOAA.NDBC:FWYF1:1,2013-12-06T11:00:00Z,25.5910,-80.0970,43.9,11.3,120.0,12.4,'1111122,1111122,1111122' 
NDBC,ioos:station:NOAA.NDBC:FWYF1:1,2013-12-06T12:00:00Z,25.5910,-80.0970,43.9,11.3,120.0,11.8,'1111122,1111122,1111122' 
NDBC,ioos:station:NOAA.NDBC:FWYF1:1,2013-12-06T13:00:00Z,25.5910,-80.0970,43.9,11.3,120.0,11.8,'1111122,1111122,1111122' 
NDBC,ioos:station:NOAA.NDBC:FWYF1:1,2013-12-06T14:00:00Z,25.5910,-80.0970,43.9,10.8,120.0,11.3,'1111122,1111122,1111122' 
NDBC,ioos:station:NOAA.NDBC:FWYF1:1,2013-12-06T15:00:00Z,25.5910,-80.0970,43.9,9.3,120.0,10.3,'1111122,1111122,1111122' 
NDBC,ioos:station:NOAA.NDBC:FWYF1:1,2013-12-06T16:00:00Z,25.5910,-80.0970,43.9,9.3,130.0,9.8,'1111122,1111122,1111122' 
NDBC,ioos:station:NOAA.NDBC:FWYF1:1,2013-12-06T17:00:00Z,25.5910,-80.0970,43.9,8.8,130.0,9.8,'1111122,1111122,1111122' 
NDBC,ioos:station:NOAA.NDBC:FWYF1:1,2013-12-06T18:00:00Z,25.5910,-80.0970,43.9,8.2,120.0,9.3,'1111122,1111122,1111122' 
NDBC,ioos:station:NOAA.NDBC:FWYF1:1,2013-12-06T19:00:00Z,25.5910,-80.0970,43.9,7.7,130.0,8.2,'1111122,1111122,1111122' 
NDBC,ioos:station:NOAA.NDBC:FWYF1:1,2013-12-06T20:00:00Z,25.5910,-80.0970,43.9,7.7,130.0,8.8,'1111122,1111122,1111122' 
NDBC,ioos:station:NOAA.NDBC:FWYF1:1,2013-12-06T21:00:00Z,25.5910,-80.0970,43.9,6.7,120.0,7.7,'1111122,1111122,1111122' 
NDBC,ioos:station:NOAA.NDBC:FWYF1:1,2013-12-06T22:00:00Z,25.5910,-80.0970,43.9,5.1,110.0,6.2,'1111122,1111122,1111122' 
NDBC,ioos:station:NOAA.NDBC:FWYF1:1,2013-12-06T23:00:00Z,25.5910,-80.0970,43.9,5.1,110.0,5.7,'1111122,1111122,1111122' 
NDBC,ioos:station:NOAA.NDBC:FWYF1:1,2013-12-07T00:00:00Z,25.5910,-80.0970,43.9,5.1,100.0,5.7,'1111122,1111122,1111122' 
NDBC,ioos:station:NOAA.NDBC:FWYF1:1,2013-12-07T01:00:00Z,25.5910,-80.0970,43.9,6.2,90.0,6.2,'1111122,1111122,1111122' 
NDBC,ioos:station:NOAA.NDBC:FWYF1:1,2013-12-07T02:00:00Z,25.5910,-80.0970,43.9,6.7,90.0,7.2,'1111122,1111122,1111122' 
NDBC,ioos:station:NOAA.NDBC:FWYF1:1,2013-12-07T03:00:00Z,25.5910,-80.0970,43.9,6.7,90.0,7.2,'1111122,1111122,1111122' 
NDBC,ioos:station:NOAA.NDBC:FWYF1:1,2013-12-07T04:00:00Z,25.5910,-80.0970,43.9,7.7,90.0,8.2,'1111122,1111122,1111122' 
NDBC,ioos:station:NOAA.NDBC:FWYF1:1,2013-12-07T05:00:00Z,25.5910,-80.0970,43.9,7.7,100.0,8.8,'1111122,1111122,1111122' 
NDBC,ioos:station:NOAA.NDBC:FWYF1:1,2013-12-07T06:00:00Z,25.5910,-80.0970,43.9,9.3,110.0,9.8,'1111122,1111122,1111122' 
NDBC,ioos:station:NOAA.NDBC:FWYF1:1,2013-12-07T07:00:00Z,25.5910,-80.0970,43.9,7.2,110.0,7.7,'1111122,1111122,1111122' 
NDBC,ioos:station:NOAA.NDBC:FWYF1:1,2013-12-07T08:00:00Z,25.5910,-80.0970,43.9,6.2,110.0,7.2,'1111122,1111122,1111122' 
NDBC,ioos:station:NOAA.NDBC:FWYF1:1,2013-12-07T09:00:00Z,25.5910,-80.0970,43.9,6.2,110.0,6.7,'1111122,1111122,1111122' 
NDBC,ioos:station:NOAA.NDBC:FWYF1:1,2013-12-07T10:00:00Z,25.5910,-80.0970,43.9,8.2,110.0,9.3,'1111122,1111122,1111122' 
NDBC,ioos:station:NOAA.NDBC:FWYF1:1,2013-12-07T11:00:00Z,25.5910,-80.0970,43.9,7.2,110.0,7.7,'1111122,1111122,1111122' 
NDBC,ioos:station:NOAA.NDBC:FWYF1:1,2013-12-07T12:00:00Z,25.5910,-80.0970,43.9,8.2,110.0,9.3,'1111122,1111122,1111122' 
NDBC,ioos:station:NOAA.NDBC:FWYF1:1,2013-12-07T13:00:00Z,25.5910,-80.0970,43.9,7.7,110.0,8.2,'1111122,1111122,1111122' 
NDBC,ioos:station:NOAA.NDBC:FWYF1:1,2013-12-07T14:00:00Z,25.5910,-80.0970,43.9,7.7,110.0,8.8,'1111122,1111122,1111122' 
NDBC,ioos:station:NOAA.NDBC:FWYF1:1,2013-12-07T15:00:00Z,25.5910,-80.0970,43.9,7.2,100.0,8.2,'1111122,1111122,1111122' 
NDBC,ioos:station:NOAA.NDBC:FWYF1:1,2013-12-07T16:00:00Z,25.5910,-80.0970,43.9,6.7,100.0,7.7,'1111122,1111122,1111122' 
NDBC,ioos:station:NOAA.NDBC:FWYF1:1,2013-12-07T17:00:00Z,25.5910,-80.0970,43.9,6.7,90.0,7.2,'1111122,1111122,1111122' 
NDBC,ioos:station:NOAA.NDBC:FWYF1:1,2013-12-07T18:00:00Z,25.5910,-80.0970,43.9,6.7,90.0,7.2,'1111122,1111122,1111122' 
NDBC,ioos:station:NOAA.NDBC:FWYF1:1,2013-12-07T19:00:00Z,25.5910,-80.0970,43.9,5.7,90.0,6.7,'1111122,1111122,1111122' 
NDBC,ioos:station:NOAA.NDBC:FWYF1:1,2013-12-07T20:00:00Z,25.5910,-80.0970,43.9,6.7,90.0,7.2,'1111122,1111122,1111122' 
NDBC,ioos:station:NOAA.NDBC:FWYF1:1,2013-12-07T21:00:00Z,25.5910,-80.0970,43.9,6.2,90.0,6.7,'1111122,1111122,1111122' 
NDBC,ioos:station:NOAA.NDBC:FWYF1:1,2013-12-07T22:00:00Z,25.5910,-80.0970,43.9,6.2,80.0,7.2,'1111122,1111122,1111122' 
NDBC,ioos:station:NOAA.NDBC:FWYF1:1,2013-12-07T23:00:00Z,25.5910,-80.0970,43.9,6.2,70.0,6.7,'1111122,1111122,1111122' 
NDBC,ioos:station:NOAA.NDBC:FWYF1:1,2013-12-08T00:00:00Z,25.5910,-80.0970,43.9,6.7,60.0,7.2,'1111122,1111122,1111122' 
NDBC,ioos:station:NOAA.NDBC:FWYF1:1,2013-12-08T01:00:00Z,25.5910,-80.0970,43.9,8.2,70.0,8.8,'1111122,1111122,1111122' 
NDBC,ioos:station:NOAA.NDBC:FWYF1:1,2013-12-08T02:00:00Z,25.5910,-80.0970,43.9,10.8,80.0,11.3,'1111122,1111122,1111122' 
NDBC,ioos:station:NOAA.NDBC:FWYF1:1,2013-12-08T03:00:00Z,25.5910,-80.0970,43.9,10.8,90.0,11.8,'1111122,1111122,1111122' 
NDBC,ioos:station:NOAA.NDBC:FWYF1:1,2013-12-08T04:00:00Z,25.5910,-80.0970,43.9,11.8,80.0,12.9,'1111122,1111122,1111122' 
NDBC,ioos:station:NOAA.NDBC:FWYF1:1,2013-12-08T05:00:00Z,25.5910,-80.0970,43.9,11.3,90.0,12.4,'1111122,1111122,1111122' 
NDBC,ioos:station:NOAA.NDBC:FWYF1:1,2013-12-08T06:00:00Z,25.5910,-80.0970,43.9,11.8,110.0,12.4,'1111122,1111122,1111122' 
NDBC,ioos:station:NOAA.NDBC:FWYF1:1,2013-12-08T07:00:00Z,25.5910,-80.0970,43.9,10.3,80.0,11.3,'1111122,1111122,1111122' 
NDBC,ioos:station:NOAA.NDBC:FWYF1:1,2013-12-08T08:00:00Z,25.5910,-80.0970,43.9,9.3,100.0,10.3,'1111122,1111122,1111122' 
NDBC,ioos:station:NOAA.NDBC:FWYF1:1,2013-12-08T09:00:00Z,25.5910,-80.0970,43.9,10.8,90.0,11.3,'1111122,1111122,1111122' 
NDBC,ioos:station:NOAA.NDBC:FWYF1:1,2013-12-08T10:00:00Z,25.5910,-80.0970,43.9,9.8,100.0,10.8,'1111122,1111122,1111122' 
NDBC,ioos:station:NOAA.NDBC:FWYF1:1,2013-12-08T11:00:00Z,25.5910,-80.0970,43.9,9.3,100.0,10.3,'1111122,1111122,1111122' 
NDBC,ioos:station:NOAA.NDBC:FWYF1:1,2013-12-08T12:00:00Z,25.5910,-80.0970,43.9,9.3,100.0,10.3,'1111122,1111122,1111122' 
NDBC,ioos:station:NOAA.NDBC:FWYF1:1,2013-12-08T13:00:00Z,25.5910,-80.0970,43.9,9.8,100.0,10.3,'1111122,1111122,1111122' 
NDBC,ioos:station:NOAA.NDBC:FWYF1:1,2013-12-08T14:00:00Z,25.5910,-80.0970,43.9,8.8,90.0,9.3,'1111122,1111122,1111122' 
NDBC,ioos:station:NOAA.NDBC:FWYF1:1,2013-12-08T15:00:00Z,25.5910,-80.0970,43.9,7.2,90.0,8.2,'1111122,1111122,1111122' 
NDBC,ioos:station:NOAA.NDBC:FWYF1:1,2013-12-08T16:00:00Z,25.5910,-80.0970,43.9,8.8,100.0,9.3,'1111122,1111122,1111122' 
NDBC,ioos:station:NOAA.NDBC:FWYF1:1,2013-12-08T17:00:00Z,25.5910,-80.0970,43.9,8.8,100.0,9.3,'1111122,1111122,1111122' 
NDBC,ioos:station:NOAA.NDBC:FWYF1:1,2013-12-08T18:00:00Z,25.5910,-80.0970,43.9,8.2,100.0,9.8,'1111122,1111122,1111122' 
NDBC,ioos:station:NOAA.NDBC:FWYF1:1,2013-12-08T19:00:00Z,25.5910,-80.0970,43.9,7.7,110.0,8.8,'1111122,1111122,1111122' 
NDBC,ioos:station:NOAA.NDBC:FWYF1:1,2013-12-08T22:00:00Z,25.5910,-80.0970,43.9,8.2,110.0,8.8,'1111122,1111122,1111122' 
NDBC,ioos:station:NOAA.NDBC:FWYF1:1,2013-12-09T00:00:00Z,25.5910,-80.0970,43.9,7.7,100.0,8.2,'1111122,1111122,1111122' 
NDBC,ioos:station:NOAA.NDBC:FWYF1:1,2013-12-09T01:00:00Z,25.5910,-80.0970,43.9,8.8,110.0,9.8,'1111122,1111122,1111122' 
NDBC,ioos:station:NOAA.NDBC:FWYF1:1,2013-12-09T02:00:00Z,25.5910,-80.0970,43.9,11.8,110.0,12.4,'1111122,1111122,1111122' 
NDBC,ioos:station:NOAA.NDBC:FWYF1:1,2013-12-09T03:00:00Z,25.5910,-80.0970,43.9,12.4,110.0,13.4,'1111122,1111122,1111122' 
NDBC,ioos:station:NOAA.NDBC:FWYF1:1,2013-12-09T04:00:00Z,25.5910,-80.0970,43.9,11.8,110.0,12.9,'1111122,1111122,1111122' 
NDBC,ioos:station:NOAA.NDBC:FWYF1:1,2013-12-09T06:00:00Z,25.5910,-80.0970,43.9,12.4,120.0,12.9,'1111122,1111122,1111122' 
NDBC,ioos:station:NOAA.NDBC:FWYF1:1,2013-12-09T07:00:00Z,25.5910,-80.0970,43.9,10.3,110.0,11.3,'1111122,1111122,1111122' 
NDBC,ioos:station:NOAA.NDBC:FWYF1:1,2013-12-09T08:00:00Z,25.5910,-80.0970,43.9,10.8,120.0,11.8,'1111122,1111122,1111122' 
NDBC,ioos:station:NOAA.NDBC:FWYF1:1,2013-12-09T09:00:00Z,25.5910,-80.0970,43.9,9.8,120.0,10.3,'1111122,1111122,1111122' 
NDBC,ioos:station:NOAA.NDBC:FWYF1:1,2013-12-09T10:00:00Z,25.5910,-80.0970,43.9,9.8,110.0,10.3,'1111122,1111122,1111122' 
NDBC,ioos:station:NOAA.NDBC:FWYF1:1,2013-12-09T12:00:00Z,25.5910,-80.0970,43.9,10.8,130.0,11.3,'1111122,1111122,1111122' 
NDBC,ioos:station:NOAA.NDBC:FWYF1:1,2013-12-09T16:00:00Z,25.5910,-80.0970,43.9,8.8,110.0,9.3,'1111122,1111122,1111122' 
NDBC,ioos:station:NOAA.NDBC:FWYF1:1,2013-12-09T17:00:00Z,25.5910,-80.0970,43.9,8.8,110.0,9.8,'1111122,1111122,1111122' 
NDBC,ioos:station:NOAA.NDBC:FWYF1:1,2013-12-10T08:00:00Z,25.5910,-80.0970,43.9,8.2,120.0,8.8,'1111122,1111122,1111122' 
NDBC,ioos:station:NOAA.NDBC:FWYF1:1,2013-12-10T11:00:00Z,25.5910,-80.0970,43.9,7.2,120.0,8.2,'1111122,1111122,1111122' 
NDBC,ioos:station:NOAA.NDBC:FWYF1:1,2013-12-10T21:00:00Z,25.5910,-80.0970,43.9,3.1,110.0,3.6,'1111122,1111122,1111122' 
NDBC,ioos:station:NOAA.NDBC:FWYF1:1,2013-12-12T09:00:00Z,25.5910,-80.0970,43.9,3.1,90.0,4.1,'1111122,1111122,1111122' 
NDBC,ioos:station:NOAA.NDBC:FWYF1:1,2013-12-12T16:00:00Z,25.5910,-80.0970,43.9,5.7,350.0,6.2,'1111122,1111122,1111122' 
NDBC,ioos:station:NOAA.NDBC:FWYF1:1,2013-12-13T06:00:00Z,25.5910,-80.0970,43.9,11.8,40.0,13.4,'1111122,1111122,1111122' 
NDBC,ioos:station:NOAA.NDBC:FWYF1:1,2013-12-13T07:00:00Z,25.5910,-80.0970,43.9,12.4,30.0,13.4,'1111122,1111122,1111122' 
NDBC,ioos:station:NOAA.NDBC:FWYF1:1,2013-12-13T08:00:00Z,25.5910,-80.0970,43.9,12.4,30.0,13.4,'1111122,1111122,1111122' 
NDBC,ioos:station:NOAA.NDBC:FWYF1:1,2013-12-13T09:00:00Z,25.5910,-80.0970,43.9,11.8,40.0,12.4,'1111122,1111122,1111122' 
NDBC,ioos:station:NOAA.NDBC:FWYF1:1,2013-12-13T10:00:00Z,25.5910,-80.0970,43.9,11.3,50.0,12.4,'1111122,1111122,1111122' 
NDBC,ioos:station:NOAA.NDBC:FWYF1:1,2013-12-13T11:00:00Z,25.5910,-80.0970,43.9,10.3,50.0,10.8,'1111122,1111122,1111122' 
NDBC,ioos:station:NOAA.NDBC:FWYF1:1,2013-12-13T12:00:00Z,25.5910,-80.0970,43.9,9.8,50.0,10.8,'1111122,1111122,1111122' 
NDBC,ioos:station:NOAA.NDBC:FWYF1:1,2013-12-13T13:00:00Z,25.5910,-80.0970,43.9,10.3,50.0,11.3,'1111122,1111122,1111122' 
NDBC,ioos:station:NOAA.NDBC:FWYF1:1,2013-12-13T14:00:00Z,25.5910,-80.0970,43.9,10.3,70.0,10.8,'1111122,1111122,1111122' 
NDBC,ioos:station:NOAA.NDBC:FWYF1:1,2013-12-13T15:00:00Z,25.5910,-80.0970,43.9,9.8,70.0,10.8,'1111122,1111122,1111122' 
NDBC,ioos:station:NOAA.NDBC:FWYF1:1,2013-12-13T16:00:00Z,25.5910,-80.0970,43.9,9.3,70.0,10.3,'1111122,1111122,1111122' 
NDBC,ioos:station:NOAA.NDBC:FWYF1:1,2013-12-13T17:00:00Z,25.5910,-80.0970,43.9,8.2,80.0,9.3,'1111122,1111122,1111122' 
NDBC,ioos:station:NOAA.NDBC:FWYF1:1,2013-12-13T18:00:00Z,25.5910,-80.0970,43.9,8.8,80.0,9.8,'1111122,1111122,1111122' 
NDBC,ioos:station:NOAA.NDBC:FWYF1:1,2013-12-13T19:00:00Z,25.5910,-80.0970,43.9,8.2,70.0,8.8,'1111122,1111122,1111122' 
NDBC,ioos:station:NOAA.NDBC:FWYF1:1,2013-12-13T20:00:00Z,25.5910,-80.0970,43.9,9.3,70.0,9.8,'1111122,1111122,1111122' 
NDBC,ioos:station:NOAA.NDBC:FWYF1:1,2013-12-13T21:00:00Z,25.5910,-80.0970,43.9,9.3,70.0,9.8,'1111122,1111122,1111122' 
NDBC,ioos:station:NOAA.NDBC:FWYF1:1,2013-12-13T22:00:00Z,25.5910,-80.0970,43.9,10.3,80.0,11.3,'1111122,1111122,1111122' 
NDBC,ioos:station:NOAA.NDBC:FWYF1:1,2013-12-13T23:00:00Z,25.5910,-80.0970,43.9,11.3,80.0,12.4,'1111122,1111122,1111122' 
NDBC,ioos:station:NOAA.NDBC:FWYF1:1,2013-12-14T00:00:00Z,25.5910,-80.0970,43.9,11.8,80.0,12.9,'1111122,1111122,1111122' 
NDBC,ioos:station:NOAA.NDBC:FWYF1:1,2013-12-14T01:00:00Z,25.5910,-80.0970,43.9,12.4,90.0,13.4,'1111122,1111122,1111122' 
NDBC,ioos:station:NOAA.NDBC:FWYF1:1,2013-12-14T02:00:00Z,25.5910,-80.0970,43.9,13.4,90.0,13.9,'1111122,1111122,1111122' 
NDBC,ioos:station:NOAA.NDBC:FWYF1:1,2013-12-14T03:00:00Z,25.5910,-80.0970,43.9,12.4,80.0,13.4,'1111122,1111122,1111122' 
NDBC,ioos:station:NOAA.NDBC:FWYF1:1,2013-12-14T04:00:00Z,25.5910,-80.0970,43.9,11.8,90.0,12.9,'1111122,1111122,1111122' 
NDBC,ioos:station:NOAA.NDBC:FWYF1:1,2013-12-14T05:00:00Z,25.5910,-80.0970,43.9,13.4,100.0,13.9,'1111122,1111122,1111122' 
NDBC,ioos:station:NOAA.NDBC:FWYF1:1,2013-12-14T06:00:00Z,25.5910,-80.0970,43.9,11.8,100.0,13.4,'1111122,1111122,1111122' 
NDBC,ioos:station:NOAA.NDBC:FWYF1:1,2013-12-14T07:00:00Z,25.5910,-80.0970,43.9,13.4,110.0,14.4,'1111122,1111122,1111122' 
NDBC,ioos:station:NOAA.NDBC:FWYF1:1,2013-12-14T08:00:00Z,25.5910,-80.0970,43.9,12.4,110.0,12.9,'1111122,1111122,1111122' 
NDBC,ioos:station:NOAA.NDBC:FWYF1:1,2013-12-14T09:00:00Z,25.5910,-80.0970,43.9,11.8,110.0,12.4,'1111122,1111122,1111122' 
NDBC,ioos:station:NOAA.NDBC:FWYF1:1,2013-12-14T10:00:00Z,25.5910,-80.0970,43.9,10.8,120.0,11.8,'1111122,1111122,1111122' 
NDBC,ioos:station:NOAA.NDBC:FWYF1:1,2013-12-14T11:00:00Z,25.5910,-80.0970,43.9,8.8,90.0,10.8,'1111122,1111122,1111122' 
NDBC,ioos:station:NOAA.NDBC:FWYF1:1,2013-12-14T12:00:00Z,25.5910,-80.0970,43.9,11.3,120.0,12.4,'1111122,1111122,1111122' 
NDBC,ioos:station:NOAA.NDBC:FWYF1:1,2013-12-14T13:00:00Z,25.5910,-80.0970,43.9,11.3,120.0,12.4,'1111122,1111122,1111122' 
NDBC,ioos:station:NOAA.NDBC:FWYF1:1,2013-12-14T14:00:00Z,25.5910,-80.0970,43.9,10.3,120.0,11.3,'1111122,1111122,1111122' 
NDBC,ioos:station:NOAA.NDBC:FWYF1:1,2013-12-14T15:00:00Z,25.5910,-80.0970,43.9,10.8,120.0,11.8,'1111122,1111122,1111122' 
NDBC,ioos:station:NOAA.NDBC:FWYF1:1,2013-12-14T16:00:00Z,25.5910,-80.0970,43.9,10.3,120.0,11.3,'1111122,1111122,1111122' 
NDBC,ioos:station:NOAA.NDBC:FWYF1:1,2013-12-14T17:00:00Z,25.5910,-80.0970,43.9,10.3,130.0,10.8,'1111122,1111122,1111122' 
NDBC,ioos:station:NOAA.NDBC:FWYF1:1,2013-12-14T18:00:00Z,25.5910,-80.0970,43.9,8.8,130.0,9.3,'1111122,1111122,1111122' 
NDBC,ioos:station:NOAA.NDBC:FWYF1:1,2013-12-14T19:00:00Z,25.5910,-80.0970,43.9,8.2,130.0,8.8,'1111122,1111122,1111122' 
NDBC,ioos:station:NOAA.NDBC:FWYF1:1,2013-12-14T20:00:00Z,25.5910,-80.0970,43.9,9.3,130.0,9.8,'1111122,1111122,1111122' 
NDBC,ioos:station:NOAA.NDBC:FWYF1:1,2013-12-14T21:00:00Z,25.5910,-80.0970,43.9,8.8,140.0,9.3,'1111122,1111122,1111122' 
NDBC,ioos:station:NOAA.NDBC:FWYF1:1,2013-12-14T22:00:00Z,25.5910,-80.0970,43.9,9.3,140.0,9.8,'1111122,1111122,1111122' 
NDBC,ioos:station:NOAA.NDBC:FWYF1:1,2013-12-14T23:00:00Z,25.5910,-80.0970,43.9,7.7,150.0,8.8,'1111122,1111122,1111122' 
NDBC,ioos:station:NOAA.NDBC:FWYF1:1,2013-12-15T00:00:00Z,25.5910,-80.0970,43.9,8.8,140.0,9.3,'1111122,1111122,1111122' 
NDBC,ioos:station:NOAA.NDBC:FWYF1:1,2013-12-15T01:00:00Z,25.5910,-80.0970,43.9,9.8,150.0,10.3,'1111122,1111122,1111122' 
NDBC,ioos:station:NOAA.NDBC:FWYF1:1,2013-12-15T02:00:00Z,25.5910,-80.0970,43.9,9.8,150.0,10.3,'1111122,1111122,1111122' 
NDBC,ioos:station:NOAA.NDBC:FWYF1:1,2013-12-15T03:00:00Z,25.5910,-80.0970,43.9,9.3,140.0,9.8,'1111122,1111122,1111122' 
NDBC,ioos:station:NOAA.NDBC:FWYF1:1,2013-12-15T04:00:00Z,25.5910,-80.0970,43.9,9.8,150.0,10.3,'1111122,1111122,1111122' 
NDBC,ioos:station:NOAA.NDBC:FWYF1:1,2013-12-15T05:00:00Z,25.5910,-80.0970,43.9,9.8,160.0,10.3,'1111122,1111122,1111122' 
NDBC,ioos:station:NOAA.NDBC:FWYF1:1,2013-12-15T06:00:00Z,25.5910,-80.0970,43.9,9.3,160.0,10.3,'1111122,1111122,1111122' 
NDBC,ioos:station:NOAA.NDBC:FWYF1:1,2013-12-15T07:00:00Z,25.5910,-80.0970,43.9,10.3,170.0,11.3,'1111122,1111122,1111122' 
NDBC,ioos:station:NOAA.NDBC:FWYF1:1,2013-12-15T08:00:00Z,25.5910,-80.0970,43.9,10.8,180.0,11.3,'1111122,1111122,1111122' 
NDBC,ioos:station:NOAA.NDBC:FWYF1:1,2013-12-15T09:00:00Z,25.5910,-80.0970,43.9,9.3,180.0,10.3,'1111122,1111122,1111122' 
NDBC,ioos:station:NOAA.NDBC:FWYF1:1,2013-12-15T10:00:00Z,25.5910,-80.0970,43.9,9.3,180.0,10.3,'1111122,1111122,1111122' 
NDBC,ioos:station:NOAA.NDBC:FWYF1:1,2013-12-15T11:00:00Z,25.5910,-80.0970,43.9,8.2,190.0,8.8,'1111122,1111122,1111122' 
NDBC,ioos:station:NOAA.NDBC:FWYF1:1,2013-12-15T12:00:00Z,25.5910,-80.0970,43.9,7.7,190.0,8.8,'1111122,1111122,1111122' 
NDBC,ioos:station:NOAA.NDBC:FWYF1:1,2013-12-15T13:00:00Z,25.5910,-80.0970,43.9,9.3,190.0,9.8,'1111122,1111122,1111122' 
NDBC,ioos:station:NOAA.NDBC:FWYF1:1,2013-12-15T14:00:00Z,25.5910,-80.0970,43.9,9.8,190.0,10.3,'1111122,1111122,1111122' 
NDBC,ioos:station:NOAA.NDBC:FWYF1:1,2013-12-15T15:00:00Z,25.5910,-80.0970,43.9,8.2,200.0,8.8,'1111122,1111122,1111122' 
NDBC,ioos:station:NOAA.NDBC:FWYF1:1,2013-12-15T16:00:00Z,25.5910,-80.0970,43.9,7.2,200.0,8.2,'1111122,1111122,1111122' 
NDBC,ioos:station:NOAA.NDBC:FWYF1:1,2013-12-15T17:00:00Z,25.5910,-80.0970,43.9,7.7,210.0,8.2,'1111122,1111122,1111122' 
NDBC,ioos:station:NOAA.NDBC:FWYF1:1,2013-12-15T18:00:00Z,25.5910,-80.0970,43.9,7.7,200.0,8.2,'1111122,1111122,1111122' 
NDBC,ioos:station:NOAA.NDBC:FWYF1:1,2013-12-15T19:00:00Z,25.5910,-80.0970,43.9,8.8,200.0,9.3,'1111122,1111122,1111122' 
NDBC,ioos:station:NOAA.NDBC:FWYF1:1,2013-12-15T20:00:00Z,25.5910,-80.0970,43.9,9.3,200.0,10.8,'1111122,1111122,1111122' 
NDBC,ioos:station:NOAA.NDBC:FWYF1:1,2013-12-15T21:00:00Z,25.5910,-80.0970,43.9,9.3,210.0,9.8,'1111122,1111122,1111122' 
NDBC,ioos:station:NOAA.NDBC:FWYF1:1,2013-12-15T22:00:00Z,25.5910,-80.0970,43.9,9.3,210.0,9.8,'1111122,1111122,1111122' 
NDBC,ioos:station:NOAA.NDBC:FWYF1:1,2013-12-15T23:00:00Z,25.5910,-80.0970,43.9,7.2,210.0,8.2,'1111122,1111122,1111122' 
NDBC,ioos:station:NOAA.NDBC:FWYF1:1,2013-12-16T00:00:00Z,25.5910,-80.0970,43.9,6.2,250.0,6.7,'1111122,1111122,1111122' 
NDBC,ioos:station:NOAA.NDBC:FWYF1:1,2013-12-16T01:00:00Z,25.5910,-80.0970,43.9,4.6,290.0,5.1,'1111122,1111122,1111122' 
NDBC,ioos:station:NOAA.NDBC:FWYF1:1,2013-12-16T02:00:00Z,25.5910,-80.0970,43.9,4.6,290.0,5.7,'1111122,1111122,1111122' 
NDBC,ioos:station:NOAA.NDBC:FWYF1:1,2013-12-16T03:00:00Z,25.5910,-80.0970,43.9,4.6,290.0,4.6,'1111122,1111122,1111122' 
NDBC,ioos:station:NOAA.NDBC:FWYF1:1,2013-12-16T04:00:00Z,25.5910,-80.0970,43.9,5.7,300.0,5.7,'1111122,1111122,1111122' 
NDBC,ioos:station:NOAA.NDBC:FWYF1:1,2013-12-16T05:00:00Z,25.5910,-80.0970,43.9,5.7,320.0,6.2,'1111122,1111122,1111122' 
NDBC,ioos:station:NOAA.NDBC:FWYF1:1,2013-12-16T06:00:00Z,25.5910,-80.0970,43.9,5.7,330.0,6.2,'1111122,1111122,1111122' 
NDBC,ioos:station:NOAA.NDBC:FWYF1:1,2013-12-16T07:00:00Z,25.5910,-80.0970,43.9,5.7,340.0,5.7,'1111122,1111122,1111122' 
NDBC,ioos:station:NOAA.NDBC:FWYF1:1,2013-12-16T08:00:00Z,25.5910,-80.0970,43.9,5.1,340.0,5.7,'1111122,1111122,1111122' 
NDBC,ioos:station:NOAA.NDBC:FWYF1:1,2013-12-16T09:00:00Z,25.5910,-80.0970,43.9,7.2,340.0,7.7,'1111122,1111122,1111122' 
NDBC,ioos:station:NOAA.NDBC:FWYF1:1,2013-12-16T10:00:00Z,25.5910,-80.0970,43.9,7.2,340.0,7.7,'1111122,1111122,1111122' 
NDBC,ioos:station:NOAA.NDBC:FWYF1:1,2013-12-16T11:00:00Z,25.5910,-80.0970,43.9,8.2,330.0,8.8,'1111122,1111122,1111122' 
NDBC,ioos:station:NOAA.NDBC:FWYF1:1,2013-12-16T12:00:00Z,25.5910,-80.0970,43.9,8.2,350.0,9.3,'1111122,1111122,1111122' 